Flag for U.S.A. Weather past 2 weeks in Bridgewater, Massachusetts, U.S.A.

Now
57 °F

Fog.


Feels Like: 57 °F
Forecast: 58 / 75 °F
Wind: No wind

Location: Taunton Municipal Airport

Current Time: Jul 4, 2015 at 4:50:12 AM

Latest Report: Jul 4, 2015 at 4:02 AM


Visibility: 2 mi

Pressure: 30.00 "Hg

Humidity: 93%

Dew point: 55 °F

Location of BridgewaterLocation

Historic Weather in Bridgewater — Graph

°F

Bridgewater temperature yesterday

Maximum temperature yesterday: 82 °F (at 2:52 PM)
Minimum temperature yesterday: 56 °F (at 4:58 AM)
Average temperature yesterday: 69 °F

Past Weeks' High & Low Weather Summary

 TemperatureHumidityPressure
High88 °F (Jun 22, 3:52 PM)97% (Jun 20, 1:59 AM)30.18 "Hg (Jun 20, 1:59 AM)
Low46 °F (Jun 27, 4:52 AM)32% (Jul 3, 1:52 PM)29.61 "Hg (Jun 21, 5:52 PM)
Average69 °F73%29.90 "Hg
* Reported Jun 19 3:02 AM — Jul 4 3:52 AM, Bridgewater, Weather by CustomWeather, © 2015

Note: Actual official high and low records may vary slightly from our data, if they occured in-between our weather recording intervals... More about our weather records

Advertising

Bridgewater weather history for previous 24 hours

 ConditionsComfort  
Time TempWeatherWind HumidityBarometerVisibility
3:52 AM
Sat, Jul 4
57 °FFog.No wind93%30.00 "Hg1 mi
2:52 AM57 °FFog.No wind93%30.00 "Hg5 mi
1:52 AM60 °FClear.3 mph90%30.00 "Hg10 mi
12:52 AM60 °FClear.No wind90%30.01 "Hg10 mi
11:52 PM
Fri, Jul 3
61 °FClear.3 mph87%30.01 "Hg10 mi
10:52 PM58 °FClear.No wind90%29.99 "Hg10 mi
9:52 PM63 °FClear.3 mph73%29.99 "Hg10 mi
8:52 PM68 °FSunny.5 mph61%29.97 "Hg10 mi
7:52 PM71 °FSunny.5 mph51%29.96 "Hg10 mi
6:52 PM74 °FSunny.9 mph48%29.96 "Hg10 mi
5:52 PM79 °FSunny.9 mph44%29.93 "Hg10 mi
4:52 PM81 °FPassing clouds.No wind34%29.93 "Hg10 mi
3:52 PM80 °FSunny.3 mph34%29.93 "Hg10 mi
2:52 PM82 °FSunny.5 mph32%29.94 "Hg10 mi
1:52 PM80 °FSunny.7 mph32%29.94 "Hg10 mi
12:52 PM79 °FPassing clouds.5 mph36%29.95 "Hg10 mi
11:52 AM77 °FSunny.6 mph36%29.94 "Hg10 mi
10:52 AM76 °FSunny.6 mph39%29.95 "Hg10 mi
9:52 AM74 °FSunny.7 mph43%29.95 "Hg10 mi
8:52 AM71 °FSunny.6 mph49%29.94 "Hg10 mi
7:52 AM68 °FSunny.6 mph61%29.93 "Hg10 mi
6:52 AM63 °FSunny.No wind84%29.91 "Hg10 mi
6:00 AM56 °FFog.No wind93%29.89 "Hg3 mi
4:58 AM56 °FFog.No wind93%29.88 "Hg1 mi
Weather by CustomWeather, © 2015

See weather overviewHow to use our weather pages